| time (UTC) | temp F | wind direction | speed MPH | gust MPH | rain 1hr in | rain 24hr in | rain mn in | humidity % | barometer mb |
| 20260506202503 | 56 | 36 | 0.0 | 0.0 | 0.00 | 0.00 | 0.00 | 43 | 984.6 |
| 20260506202006 | 56 | 36 | 0.0 | 0.0 | 0.00 | 0.00 | 0.00 | 44 | 984.6 |
| 20260506201520 | 57 | 37 | 0.0 | 0.0 | 0.00 | 0.00 | 0.00 | 41 | 984.6 |
| 20260506201007 | 57 | 36 | 0.0 | 0.0 | 0.00 | 0.00 | 0.00 | 41 | 984.7 |
| 20260506200505 | 57 | 35 | 0.0 | 0.0 | 0.00 | 0.00 | 0.00 | 43 | 984.6 |
| 20260506200015 | 58 | 36 | 0.0 | 0.0 | 0.00 | 0.00 | 0.00 | 41 | 984.7 |
| 20260506195508 | 58 | 36 | 0.0 | 0.0 | 0.00 | 0.00 | 0.00 | 41 | 984.8 |
| 20260506195006 | 58 | 32 | 0.0 | 0.0 | 0.00 | 0.00 | 0.00 | 40 | 984.7 |
| 20260506194518 | 59 | 33 | 0.0 | 0.0 | 0.00 | 0.00 | 0.00 | 43 | 984.7 |
| 20260506194003 | 59 | 34 | 0.0 | 0.0 | 0.00 | 0.00 | 0.00 | 43 | 984.7 |
| 20260506193508 | 59 | 33 | 0.0 | 0.0 | 0.00 | 0.00 | 0.00 | 46 | 984.7 |
| 20260506193020 | 59 | 32 | 0.0 | 0.0 | 0.00 | 0.00 | 0.00 | 39 | 984.6 |
| 20260506192503 | 59 | 33 | 0.0 | 0.0 | 0.00 | 0.00 | 0.00 | 41 | 984.7 |
| 20260506192006 | 59 | 34 | 0.0 | 0.0 | 0.00 | 0.00 | 0.00 | 45 | 984.7 |
| 20260506191512 | 59 | 33 | 0.0 | 0.0 | 0.00 | 0.00 | 0.00 | 47 | 984.6 |
| 20260506191002 | 59 | 32 | 0.0 | 0.0 | 0.00 | 0.00 | 0.00 | 42 | 984.6 |
| 20260506190507 | 58 | 32 | 0.0 | 0.0 | 0.00 | 0.00 | 0.00 | 47 | 984.5 |
| 20260506190021 | 58 | 32 | 0.0 | 0.0 | 0.00 | 0.00 | 0.00 | 44 | 984.6 |
| 20260506185507 | 59 | 32 | 0.0 | 0.0 | 0.00 | 0.00 | 0.00 | 44 | 984.7 |
| 20260506185005 | 58 | 34 | 0.0 | 0.0 | 0.00 | 0.00 | 0.00 | 47 | 984.8 |
| 20260506184522 | 58 | 32 | 0.0 | 0.0 | 0.00 | 0.00 | 0.00 | 51 | 984.8 |
| 20260506184009 | 58 | 32 | 0.0 | 0.0 | 0.00 | 0.00 | 0.00 | 44 | 984.8 |
| 20260506183505 | 58 | 31 | 0.0 | 0.0 | 0.00 | 0.00 | 0.00 | 44 | 984.8 |
| 20260506183008 | 58 | 32 | 0.0 | 0.0 | 0.00 | 0.00 | 0.00 | 42 | 984.8 |
| 20260506182503 | 58 | 32 | 0.0 | 0.0 | 0.00 | 0.00 | 0.00 | 48 | 984.8 |
| 20260506182004 | 58 | 32 | 0.0 | 0.0 | 0.00 | 0.00 | 0.00 | 49 | 984.8 |
| 20260506181511 | 57 | 31 | 0.0 | 0.0 | 0.00 | 0.00 | 0.00 | 48 | 984.8 |
| 20260506181004 | 57 | 32 | 0.0 | 0.0 | 0.00 | 0.00 | 0.00 | 46 | 984.8 |
| 20260506180504 | 56 | 32 | 0.0 | 0.0 | 0.00 | 0.00 | 0.00 | 46 | 984.8 |
| 20260506180025 | 56 | 32 | 0.0 | 0.0 | 0.00 | 0.00 | 0.00 | 47 | 984.8 |
| 20260506175501 | 56 | 33 | 0.0 | 0.0 | 0.00 | 0.00 | 0.00 | 45 | 984.7 |
| 20260506175002 | 56 | 32 | 0.0 | 0.0 | 0.00 | 0.00 | 0.00 | 46 | 984.8 |
| 20260506174504 | 56 | 34 | 0.0 | 0.0 | 0.00 | 0.00 | 0.00 | 47 | 984.8 |
| 20260506174003 | 56 | 32 | 0.0 | 0.0 | 0.00 | 0.00 | 0.00 | 47 | 984.7 |
| 20260506173504 | 56 | 33 | 0.0 | 0.0 | 0.00 | 0.00 | 0.00 | 44 | 984.7 |
| 20260506173013 | 56 | 32 | 0.0 | 0.0 | 0.00 | 0.00 | 0.00 | 42 | 984.6 |
| 20260506172503 | 57 | 32 | 0.0 | 0.0 | 0.00 | 0.00 | 0.00 | 41 | 984.7 |
| 20260506172006 | 57 | 32 | 0.0 | 0.0 | 0.00 | 0.00 | 0.00 | 43 | 984.7 |
| 20260506171511 | 57 | 32 | 0.0 | 0.0 | 0.00 | 0.00 | 0.00 | 45 | 984.7 |
| 20260506171004 | 57 | 32 | 0.0 | 0.0 | 0.00 | 0.00 | 0.00 | 43 | 984.7 |
| 20260506170503 | 57 | 32 | 0.0 | 0.0 | 0.00 | 0.00 | 0.00 | 52 | 984.7 |
| 20260506170013 | 56 | 32 | 0.0 | 0.0 | 0.00 | 0.00 | 0.00 | 47 | 984.7 |
| 20260506165503 | 56 | 32 | 0.0 | 0.0 | 0.00 | 0.00 | 0.00 | 47 | 984.8 |
| 20260506165007 | 56 | 31 | 0.0 | 0.0 | 0.00 | 0.00 | 0.00 | 43 | 984.9 |
| 20260506164516 | 56 | 32 | 0.0 | 0.0 | 0.00 | 0.00 | 0.00 | 48 | 984.9 |
| 20260506164002 | 56 | 30 | 0.0 | 0.0 | 0.00 | 0.00 | 0.00 | 48 | 985.0 |
| 20260506163503 | 56 | 30 | 0.0 | 0.0 | 0.00 | 0.00 | 0.00 | 46 | 985.1 |
| 20260506163004 | 56 | 30 | 0.0 | 0.0 | 0.00 | 0.00 | 0.00 | 40 | 985.1 |
| 20260506162503 | 56 | 30 | 0.0 | 0.0 | 0.00 | 0.00 | 0.00 | 46 | 985.1 |
| 20260506162006 | 55 | 30 | 0.0 | 0.0 | 0.00 | 0.00 | 0.00 | 47 | 985.3 |
| 20260506161506 | 55 | 31 | 0.0 | 0.0 | 0.00 | 0.00 | 0.00 | 43 | 985.3 |
| 20260506161005 | 56 | 31 | 0.0 | 0.0 | 0.00 | 0.00 | 0.00 | 42 | 985.2 |
| 20260506160505 | 57 | 31 | 0.0 | 0.0 | 0.00 | 0.00 | 0.00 | 44 | 985.2 |
| 20260506160011 | 59 | 32 | 0.0 | 0.0 | 0.00 | 0.00 | 0.00 | 41 | 985.2 |
| 20260506155504 | 60 | 30 | 0.0 | 0.0 | 0.00 | 0.00 | 0.00 | 38 | 985.2 |
| 20260506155006 | 61 | 30 | 0.0 | 0.0 | 0.00 | 0.00 | 0.00 | 36 | 985.2 |
| 20260506154515 | 61 | 30 | 0.0 | 0.0 | 0.00 | 0.00 | 0.00 | 38 | 985.1 |
| 20260506154006 | 62 | 30 | 0.0 | 0.0 | 0.00 | 0.00 | 0.00 | 37 | 985.2 |
| 20260506153511 | 61 | 30 | 0.0 | 0.0 | 0.00 | 0.00 | 0.00 | 39 | 985.2 |
| 20260506153020 | 61 | 31 | 0.0 | 0.0 | 0.00 | 0.00 | 0.00 | 41 | 985.2 |
| 20260506152508 | 61 | 30 | 0.0 | 0.0 | 0.00 | 0.00 | 0.00 | 38 | 985.2 |
| 20260506152003 | 60 | 30 | 0.0 | 0.0 | 0.00 | 0.00 | 0.00 | 41 | 985.2 |
| 20260506151506 | 59 | 30 | 0.0 | 0.0 | 0.00 | 0.00 | 0.00 | 44 | 985.1 |
| 20260506151003 | 58 | 30 | 0.0 | 0.0 | 0.00 | 0.00 | 0.00 | 43 | 984.9 |
| 20260506150504 | 58 | 30 | 0.0 | 0.0 | 0.00 | 0.00 | 0.00 | 45 | 984.8 |
| 20260506150008 | 57 | 30 | 0.0 | 0.0 | 0.00 | 0.00 | 0.00 | 44 | 984.9 |
| 20260506145506 | 57 | 30 | 0.0 | 0.0 | 0.00 | 0.00 | 0.00 | 45 | 985.0 |
| 20260506145004 | 56 | 30 | 0.0 | 0.0 | 0.00 | 0.00 | 0.00 | 43 | 984.9 |
| 20260506144513 | 55 | 30 | 0.0 | 0.0 | 0.00 | 0.00 | 0.00 | 47 | 984.9 |
| 20260506144003 | 54 | 30 | 0.0 | 0.0 | 0.00 | 0.00 | 0.00 | 50 | 984.9 |
| 20260506143503 | 53 | 30 | 0.0 | 0.0 | 0.00 | 0.00 | 0.00 | 50 | 984.8 |
| 20260506143024 | 53 | 30 | 0.0 | 0.0 | 0.00 | 0.00 | 0.00 | 45 | 984.7 |
| 20260506142513 | 53 | 30 | 0.0 | 0.0 | 0.00 | 0.00 | 0.00 | 45 | 984.7 |
| 20260506142008 | 54 | 31 | 0.0 | 0.0 | 0.00 | 0.00 | 0.00 | 48 | 984.7 |
| 20260506141520 | 54 | 31 | 0.0 | 0.0 | 0.00 | 0.00 | 0.00 | 48 | 984.7 |
| 20260506141014 | 55 | 31 | 0.0 | 0.0 | 0.00 | 0.00 | 0.00 | 52 | 984.7 |
| 20260506140503 | 55 | 30 | 0.0 | 0.0 | 0.00 | 0.00 | 0.00 | 49 | 984.6 |
| 20260506140008 | 54 | 30 | 0.0 | 0.0 | 0.00 | 0.00 | 0.00 | 53 | 984.4 |
| 20260506135506 | 54 | 30 | 0.0 | 0.0 | 0.00 | 0.00 | 0.00 | 48 | 984.4 |
| 20260506135003 | 53 | 30 | 0.0 | 0.0 | 0.00 | 0.00 | 0.00 | 51 | 984.4 |
| 20260506134513 | 53 | 30 | 0.0 | 0.0 | 0.00 | 0.00 | 0.00 | 51 | 984.2 |
| 20260506134003 | 52 | 30 | 0.0 | 0.0 | 0.00 | 0.00 | 0.00 | 51 | 984.2 |
| 20260506133504 | 52 | 30 | 0.0 | 0.0 | 0.00 | 0.00 | 0.00 | 53 | 984.1 |
| 20260506133015 | 51 | 30 | 0.0 | 0.0 | 0.00 | 0.00 | 0.00 | 54 | 984.1 |
| 20260506132511 | 51 | 30 | 0.0 | 0.0 | 0.00 | 0.00 | 0.00 | 55 | 984.1 |
| 20260506132007 | 50 | 30 | 0.0 | 0.0 | 0.00 | 0.00 | 0.00 | 55 | 984.0 |
| 20260506131528 | 49 | 31 | 0.0 | 0.0 | 0.00 | 0.00 | 0.00 | 58 | 983.7 |
| 20260506131008 | 49 | 31 | 0.0 | 0.0 | 0.00 | 0.00 | 0.00 | 60 | 983.8 |
| 20260506130507 | 48 | 31 | 0.0 | 0.0 | 0.00 | 0.00 | 0.00 | 61 | 983.7 |
| 20260506130024 | 47 | 31 | 0.0 | 0.0 | 0.00 | 0.00 | 0.00 | 62 | 983.8 |
| 20260506125510 | 47 | 31 | 0.0 | 0.0 | 0.00 | 0.00 | 0.00 | 64 | 983.7 |
| 20260506125007 | 47 | 31 | 0.0 | 0.0 | 0.00 | 0.00 | 0.00 | 65 | 983.7 |
| 20260506124508 | 46 | 31 | 0.0 | 0.0 | 0.00 | 0.00 | 0.00 | 66 | 983.7 |
| 20260506124003 | 46 | 31 | 0.0 | 0.0 | 0.00 | 0.00 | 0.00 | 69 | 983.7 |
| 20260506123504 | 46 | 31 | 0.0 | 0.0 | 0.00 | 0.00 | 0.00 | 68 | 983.7 |
| 20260506123012 | 45 | 31 | 0.0 | 0.0 | 0.00 | 0.00 | 0.00 | 70 | 983.8 |
| 20260506122504 | 45 | 31 | 0.0 | 0.0 | 0.00 | 0.00 | 0.00 | 71 | 983.9 |
| 20260506122007 | 44 | 31 | 0.0 | 0.0 | 0.00 | 0.00 | 0.00 | 72 | 983.9 |
| 20260506121515 | 44 | 31 | 0.0 | 0.0 | 0.00 | 0.00 | 0.00 | 73 | 983.8 |
| 20260506121005 | 43 | 31 | 0.0 | 0.0 | 0.00 | 0.00 | 0.00 | 75 | 983.6 |
| 20260506120506 | 42 | 31 | 0.0 | 0.0 | 0.00 | 0.00 | 0.00 | 77 | 983.6 |
| 20260506120023 | 42 | 31 | 0.0 | 0.0 | 0.00 | 0.00 | 0.00 | 79 | 983.4 |
| 20260506115516 | 42 | 31 | 0.0 | 0.0 | 0.00 | 0.00 | 0.00 | 80 | 983.3 |
| 20260506115007 | 42 | 31 | 0.0 | 0.0 | 0.00 | 0.00 | 0.00 | 79 | 983.1 |
| 20260506114533 | 41 | 31 | 0.0 | 0.0 | 0.00 | 0.00 | 0.00 | 80 | 983.1 |
| 20260506114012 | 41 | 31 | 0.0 | 0.0 | 0.00 | 0.00 | 0.00 | 80 | 983.0 |
| 20260506113510 | 41 | 31 | 0.0 | 0.0 | 0.00 | 0.00 | 0.00 | 80 | 982.9 |
| 20260506113010 | 41 | 31 | 0.0 | 0.0 | 0.00 | 0.00 | 0.00 | 80 | 982.8 |
| 20260506112503 | 41 | 31 | 0.0 | 0.0 | 0.00 | 0.00 | 0.00 | 81 | 982.7 |
| 20260506112007 | 41 | 31 | 0.0 | 0.0 | 0.00 | 0.00 | 0.00 | 81 | 982.6 |
| 20260506111514 | 41 | 31 | 0.0 | 0.0 | 0.00 | 0.00 | 0.00 | 80 | 982.4 |
| 20260506111004 | 41 | 30 | 0.0 | 0.0 | 0.00 | 0.00 | 0.00 | 79 | 982.5 |
| 20260506110505 | 41 | 30 | 0.0 | 0.0 | 0.00 | 0.00 | 0.00 | 78 | 982.4 |
| 20260506110021 | 42 | 30 | 0.0 | 0.0 | 0.00 | 0.00 | 0.00 | 77 | 982.3 |
| 20260506105507 | 42 | 30 | 0.0 | 0.0 | 0.00 | 0.00 | 0.00 | 75 | 982.1 |
| 20260506105009 | 42 | 30 | 0.0 | 0.0 | 0.00 | 0.00 | 0.00 | 75 | 982.2 |
| 20260506104522 | 42 | 30 | 0.0 | 0.0 | 0.00 | 0.00 | 0.00 | 74 | 982.0 |
| 20260506104006 | 42 | 30 | 0.0 | 0.0 | 0.00 | 0.00 | 0.00 | 73 | 982.0 |
| 20260506103514 | 42 | 30 | 0.0 | 0.0 | 0.00 | 0.00 | 0.00 | 73 | 982.2 |
| 20260506103029 | 42 | 30 | 0.0 | 0.0 | 0.00 | 0.00 | 0.00 | 73 | 982.3 |
| 20260506102507 | 42 | 30 | 0.0 | 0.0 | 0.00 | 0.00 | 0.00 | 72 | 982.2 |
| 20260506102012 | 43 | 30 | 0.0 | 0.0 | 0.00 | 0.00 | 0.00 | 72 | 982.2 |
| 20260506101540 | 43 | 30 | 0.0 | 0.0 | 0.00 | 0.00 | 0.00 | 72 | 982.1 |
| 20260506101003 | 43 | 30 | 0.0 | 0.0 | 0.00 | 0.00 | 0.00 | 73 | 981.9 |
| 20260506100505 | 43 | 30 | 0.0 | 0.0 | 0.00 | 0.00 | 0.00 | 73 | 981.9 |
| 20260506100015 | 43 | 30 | 0.0 | 0.0 | 0.00 | 0.00 | 0.00 | 74 | 981.8 |
| 20260506095507 | 43 | 30 | 0.0 | 0.0 | 0.00 | 0.00 | 0.00 | 74 | 981.9 |
| 20260506095004 | 44 | 30 | 0.0 | 0.0 | 0.00 | 0.00 | 0.00 | 74 | 982.0 |
| 20260506094524 | 44 | 30 | 0.0 | 0.0 | 0.00 | 0.00 | 0.00 | 74 | 981.9 |
| 20260506094013 | 44 | 30 | 0.0 | 0.0 | 0.00 | 0.00 | 0.00 | 73 | 981.7 |
| 20260506093503 | 44 | 30 | 0.0 | 0.0 | 0.00 | 0.00 | 0.00 | 74 | 981.7 |
| 20260506093004 | 44 | 30 | 0.0 | 0.0 | 0.00 | 0.00 | 0.00 | 74 | 981.7 |
| 20260506092504 | 45 | 30 | 0.0 | 0.0 | 0.00 | 0.00 | 0.00 | 75 | 981.7 |
| 20260506092005 | 45 | 30 | 0.0 | 0.0 | 0.00 | 0.00 | 0.00 | 75 | 981.7 |
| 20260506091508 | 45 | 30 | 0.0 | 0.0 | 0.00 | 0.00 | 0.00 | 74 | 981.6 |
| 20260506091004 | 45 | 30 | 0.0 | 0.0 | 0.00 | 0.00 | 0.00 | 74 | 981.7 |
| 20260506090503 | 45 | 30 | 0.0 | 0.0 | 0.00 | 0.00 | 0.00 | 75 | 981.8 |
| 20260506090011 | 45 | 30 | 0.0 | 0.0 | 0.00 | 0.00 | 0.00 | 75 | 981.8 |
| 20260506085503 | 46 | 30 | 0.0 | 0.0 | 0.00 | 0.00 | 0.00 | 75 | 981.9 |
| 20260506085004 | 46 | 30 | 0.0 | 0.0 | 0.00 | 0.00 | 0.00 | 75 | 981.7 |
| 20260506084516 | 46 | 30 | 0.0 | 0.0 | 0.00 | 0.00 | 0.00 | 74 | 981.4 |
| 20260506084004 | 46 | 30 | 0.0 | 0.0 | 0.00 | 0.00 | 0.00 | 74 | 981.4 |
| 20260506083502 | 46 | 30 | 0.0 | 0.0 | 0.00 | 0.00 | 0.00 | 73 | 981.1 |
| 20260506083004 | 46 | 30 | 0.0 | 0.0 | 0.00 | 0.00 | 0.00 | 73 | 981.2 |
| 20260506082503 | 47 | 30 | 0.0 | 0.0 | 0.00 | 0.00 | 0.00 | 74 | 981.2 |
| 20260506082003 | 47 | 30 | 0.0 | 0.0 | 0.00 | 0.00 | 0.00 | 74 | 981.1 |
| 20260506081506 | 47 | 30 | 0.0 | 0.0 | 0.00 | 0.00 | 0.00 | 73 | 981.1 |
| 20260506081004 | 47 | 30 | 0.0 | 0.0 | 0.00 | 0.00 | 0.00 | 75 | 980.9 |
| 20260506080503 | 47 | 30 | 0.0 | 0.0 | 0.00 | 0.00 | 0.00 | 75 | 980.9 |
| 20260506073504 | 48 | 30 | 0.0 | 0.0 | 0.00 | 0.00 | 0.00 | 84 | 980.9 |
| 20260506073033 | 48 | 30 | 0.0 | 0.0 | 0.00 | 0.00 | 0.00 | 84 | 980.8 |
| 20260506072506 | 48 | 30 | 0.0 | 0.0 | 0.00 | 0.00 | 0.00 | 84 | 980.8 |
| 20260506072013 | 48 | 30 | 0.0 | 0.0 | 0.00 | 0.00 | 0.00 | 84 | 980.8 |
| 20260506071504 | 48 | 30 | 0.0 | 0.0 | 0.00 | 0.00 | 0.00 | 84 | 980.8 |
| 20260506071006 | 48 | 30 | 0.0 | 0.0 | 0.00 | 0.00 | 0.00 | 84 | 980.9 |
| 20260506070503 | 48 | 30 | 0.0 | 0.0 | 0.00 | 0.00 | 0.00 | 84 | 980.9 |
| 20260506062505 | 48 | 30 | 0.0 | 0.0 | 0.00 | 0.00 | 0.00 | 83 | 981.2 |
| 20260506062006 | 48 | 30 | 0.0 | 0.0 | 0.00 | 0.00 | 0.00 | 82 | 981.2 |
| 20260506061520 | 48 | 30 | 0.0 | 0.0 | 0.00 | 0.00 | 0.00 | 82 | 981.2 |
| 20260506061006 | 48 | 30 | 0.0 | 0.0 | 0.00 | 0.00 | 0.00 | 83 | 981.3 |
| 20260506060506 | 48 | 30 | 0.0 | 0.0 | 0.00 | 0.00 | 0.00 | 83 | 981.2 |
| 20260506051009 | 49 | 30 | 0.0 | 0.0 | 0.00 | 0.00 | 0.00 | 81 | 981.4 |
| 20260506050506 | 49 | 30 | 0.0 | 0.0 | 0.00 | 0.00 | 0.00 | 81 | 981.4 |
| 20260506045007 | 49 | 30 | 0.0 | 0.0 | 0.00 | 0.01 | 0.00 | 81 | 981.3 |
| 20260506044551 | 49 | 30 | 0.0 | 0.0 | 0.00 | 0.01 | 0.00 | 81 | 981.4 |
| 20260506044003 | 49 | 30 | 0.0 | 0.0 | 0.00 | 0.01 | 0.00 | 82 | 981.3 |
| 20260506043505 | 49 | 30 | 0.0 | 0.0 | 0.00 | 0.01 | 0.00 | 82 | 981.2 |
| 20260506043016 | 49 | 30 | 0.0 | 0.0 | 0.00 | 0.01 | 0.00 | 82 | 981.1 |
| 20260506042506 | 49 | 30 | 0.0 | 0.0 | 0.00 | 0.01 | 0.00 | 81 | 981.0 |
| 20260506042007 | 49 | 30 | 0.0 | 0.0 | 0.00 | 0.01 | 0.00 | 82 | 981.1 |
| 20260506041512 | 49 | 30 | 0.0 | 0.0 | 0.00 | 0.01 | 0.00 | 80 | 981.0 |
| 20260506041007 | 49 | 30 | 0.0 | 0.0 | 0.00 | 0.01 | 0.00 | 80 | 980.8 |
| 20260506040507 | 49 | 30 | 0.0 | 0.0 | 0.00 | 0.01 | 0.00 | 79 | 980.7 |
| 20260506040017 | 49 | 30 | 0.0 | 0.0 | 0.00 | 0.01 | 0.00 | 78 | 980.7 |
| 20260506035506 | 49 | 30 | 0.0 | 0.0 | 0.00 | 0.01 | 0.01 | 78 | 980.8 |
| 20260506035007 | 49 | 30 | 0.0 | 0.0 | 0.00 | 0.02 | 0.01 | 78 | 980.8 |
| 20260506034543 | 49 | 30 | 0.0 | 0.0 | 0.00 | 0.02 | 0.01 | 79 | 980.9 |
| 20260506034008 | 49 | 30 | 0.0 | 0.0 | 0.00 | 0.03 | 0.01 | 79 | 980.9 |
| 20260506033506 | 49 | 30 | 0.0 | 0.0 | 0.00 | 0.04 | 0.01 | 80 | 980.9 |
| 20260506033025 | 49 | 30 | 0.0 | 0.0 | 0.00 | 0.04 | 0.01 | 81 | 981.1 |
| 20260506032503 | 49 | 30 | 0.0 | 0.0 | 0.00 | 0.05 | 0.01 | 80 | 981.0 |
| 20260506032003 | 49 | 30 | 0.0 | 0.0 | 0.00 | 0.05 | 0.01 | 80 | 981.1 |
| 20260506031508 | 49 | 30 | 0.0 | 0.0 | 0.00 | 0.06 | 0.01 | 80 | 980.9 |
| 20260506031004 | 49 | 30 | 0.0 | 0.0 | 0.00 | 0.06 | 0.01 | 78 | 981.0 |
| 20260506030507 | 49 | 30 | 0.0 | 0.0 | 0.00 | 0.07 | 0.01 | 77 | 981.0 |
| 20260506030016 | 49 | 30 | 0.0 | 0.0 | 0.00 | 0.07 | 0.01 | 77 | 981.1 |
| 20260506025507 | 49 | 30 | 0.0 | 0.0 | 0.00 | 0.07 | 0.01 | 76 | 981.1 |
| 20260506025007 | 49 | 30 | 0.0 | 0.0 | 0.00 | 0.08 | 0.01 | 75 | 980.9 |
| 20260506024520 | 49 | 30 | 0.0 | 0.0 | 0.00 | 0.09 | 0.01 | 74 | 980.9 |
| 20260506024011 | 50 | 30 | 0.0 | 0.0 | 0.00 | 0.11 | 0.01 | 74 | 981.0 |
| 20260506023513 | 50 | 30 | 0.0 | 0.0 | 0.00 | 0.11 | 0.01 | 73 | 981.0 |
| 20260506023026 | 50 | 30 | 0.0 | 0.0 | 0.00 | 0.11 | 0.01 | 73 | 980.9 |
| 20260506022510 | 50 | 30 | 0.0 | 0.0 | 0.00 | 0.11 | 0.01 | 74 | 980.8 |
| 20260506022006 | 50 | 30 | 0.0 | 0.0 | 0.00 | 0.11 | 0.01 | 73 | 980.8 |
| 20260506021525 | 50 | 30 | 0.0 | 0.0 | 0.00 | 0.11 | 0.01 | 72 | 980.8 |
| 20260506021009 | 50 | 30 | 0.0 | 0.0 | 0.00 | 0.11 | 0.01 | 71 | 980.8 |
| 20260506020504 | 50 | 30 | 0.0 | 0.0 | 0.00 | 0.11 | 0.01 | 71 | 980.8 |
| 20260506020014 | 50 | 30 | 0.0 | 0.0 | 0.00 | 0.11 | 0.01 | 72 | 980.7 |
| 20260506015504 | 50 | 30 | 0.0 | 0.0 | 0.00 | 0.11 | 0.01 | 72 | 980.5 |
| 20260506015006 | 50 | 30 | 0.0 | 0.0 | 0.00 | 0.11 | 0.01 | 71 | 980.4 |
| 20260506014520 | 50 | 30 | 0.0 | 0.0 | 0.00 | 0.11 | 0.01 | 70 | 980.4 |
| 20260506014007 | 50 | 30 | 0.0 | 0.0 | 0.00 | 0.11 | 0.01 | 69 | 980.5 |
| 20260506013509 | 50 | 30 | 0.0 | 0.0 | 0.00 | 0.11 | 0.01 | 69 | 980.5 |
| 20260506013023 | 50 | 30 | 0.0 | 0.0 | 0.00 | 0.11 | 0.01 | 69 | 980.4 |
| 20260506012509 | 50 | 30 | 0.0 | 0.0 | 0.00 | 0.11 | 0.01 | 70 | 980.4 |
| 20260506012010 | 50 | 30 | 0.0 | 0.0 | 0.00 | 0.11 | 0.01 | 68 | 980.3 |
| 20260506011523 | 50 | 30 | 0.0 | 0.0 | 0.00 | 0.11 | 0.01 | 67 | 980.2 |
| 20260506011011 | 50 | 30 | 0.0 | 0.0 | 0.00 | 0.11 | 0.01 | 68 | 980.2 |
| 20260506010507 | 50 | 30 | 0.0 | 0.0 | 0.00 | 0.11 | 0.01 | 66 | 980.0 |
| 20260506010027 | 50 | 30 | 0.0 | 0.0 | 0.00 | 0.11 | 0.01 | 65 | 979.9 |
| 20260506005509 | 50 | 30 | 0.0 | 0.0 | 0.00 | 0.11 | 0.01 | 65 | 979.8 |
| 20260506005010 | 50 | 30 | 0.0 | 0.0 | 0.00 | 0.11 | 0.01 | 65 | 979.9 |
| 20260506004529 | 50 | 30 | 0.0 | 0.0 | 0.00 | 0.11 | 0.01 | 65 | 980.0 |
| 20260506004008 | 50 | 30 | 0.0 | 0.0 | 0.00 | 0.11 | 0.01 | 64 | 979.9 |
| 20260506003507 | 50 | 30 | 0.0 | 0.0 | 0.00 | 0.11 | 0.01 | 66 | 979.9 |
| 20260506003004 | 50 | 30 | 0.0 | 0.0 | 0.00 | 0.11 | 0.01 | 65 | 980.0 |
| 20260506002505 | 50 | 30 | 0.0 | 0.0 | 0.00 | 0.11 | 0.01 | 66 | 980.1 |
| 20260506002003 | 50 | 30 | 0.0 | 0.0 | 0.00 | 0.11 | 0.01 | 65 | 979.8 |
| 20260506001504 | 50 | 30 | 0.0 | 0.0 | 0.00 | 0.11 | 0.01 | 66 | 979.7 |
| 20260506001004 | 50 | 30 | 0.0 | 0.0 | 0.00 | 0.11 | 0.01 | 64 | 979.8 |
| 20260506000504 | 51 | 30 | 0.0 | 0.0 | 0.00 | 0.11 | 0.01 | 64 | 979.8 |
| 20260506000005 | 51 | 30 | 0.0 | 0.0 | 0.00 | 0.11 | 0.01 | 66 | 979.9 |
| 20260505235504 | 51 | 30 | 0.0 | 0.0 | 0.00 | 0.11 | 0.01 | 67 | 979.9 |
| 20260505235003 | 51 | 30 | 0.0 | 0.0 | 0.00 | 0.11 | 0.01 | 65 | 979.8 |
| 20260505234517 | 51 | 30 | 0.0 | 0.0 | 0.00 | 0.11 | 0.01 | 66 | 979.8 |
| 20260505234004 | 51 | 30 | 0.0 | 0.0 | 0.00 | 0.11 | 0.01 | 65 | 979.8 |
| 20260505233510 | 51 | 30 | 0.0 | 0.0 | 0.00 | 0.11 | 0.01 | 64 | 979.9 |
| 20260505233018 | 51 | 30 | 0.0 | 0.0 | 0.00 | 0.11 | 0.01 | 66 | 980.0 |
| 20260505232508 | 51 | 30 | 0.0 | 0.0 | 0.00 | 0.11 | 0.01 | 64 | 980.1 |
| 20260505232007 | 51 | 30 | 0.0 | 0.0 | 0.00 | 0.11 | 0.01 | 63 | 980.1 |
| 20260505231509 | 51 | 30 | 0.0 | 0.0 | 0.00 | 0.11 | 0.01 | 62 | 980.1 |
| 20260505231003 | 52 | 30 | 0.0 | 0.0 | 0.00 | 0.11 | 0.01 | 60 | 980.3 |
| 20260505230503 | 52 | 30 | 0.0 | 0.0 | 0.00 | 0.11 | 0.01 | 59 | 980.3 |
| 20260505230008 | 52 | 31 | 0.0 | 0.0 | 0.00 | 0.11 | 0.01 | 60 | 980.5 |
| 20260505225504 | 52 | 31 | 0.0 | 0.0 | 0.00 | 0.11 | 0.01 | 59 | 980.5 |
| 20260505225005 | 52 | 31 | 0.0 | 0.0 | 0.00 | 0.11 | 0.01 | 60 | 980.5 |
| 20260505224510 | 52 | 31 | 0.0 | 0.0 | 0.00 | 0.11 | 0.01 | 56 | 980.4 |
| 20260505224006 | 52 | 31 | 0.0 | 0.0 | 0.00 | 0.11 | 0.01 | 56 | 980.5 |
| 20260505223506 | 52 | 31 | 0.0 | 0.0 | 0.00 | 0.11 | 0.01 | 56 | 980.4 |
| 20260505223014 | 52 | 31 | 0.0 | 0.0 | 0.00 | 0.11 | 0.01 | 60 | 980.4 |
| 20260505222508 | 52 | 31 | 0.0 | 0.0 | 0.00 | 0.11 | 0.01 | 58 | 980.5 |
| 20260505222006 | 53 | 31 | 0.0 | 0.0 | 0.00 | 0.11 | 0.01 | 58 | 980.4 |
| 20260505221521 | 53 | 31 | 0.0 | 0.0 | 0.00 | 0.11 | 0.01 | 56 | 980.2 |
| 20260505221006 | 53 | 31 | 0.0 | 0.0 | 0.00 | 0.11 | 0.01 | 58 | 980.1 |
| 20260505220508 | 53 | 31 | 0.0 | 0.0 | 0.00 | 0.11 | 0.01 | 57 | 980.2 |
| 20260505220033 | 53 | 31 | 0.0 | 0.0 | 0.00 | 0.11 | 0.01 | 54 | 980.3 |
| 20260505215502 | 53 | 31 | 0.0 | 0.0 | 0.00 | 0.11 | 0.01 | 55 | 980.3 |
| 20260505215003 | 53 | 31 | 0.0 | 0.0 | 0.00 | 0.11 | 0.01 | 58 | 980.3 |
| 20260505214507 | 53 | 31 | 0.0 | 0.0 | 0.00 | 0.11 | 0.01 | 54 | 980.4 |
| 20260505214003 | 53 | 31 | 0.0 | 0.0 | 0.00 | 0.11 | 0.01 | 55 | 980.4 |
| 20260505213508 | 54 | 31 | 0.0 | 0.0 | 0.00 | 0.11 | 0.01 | 58 | 980.3 |
| 20260505213008 | 54 | 31 | 0.0 | 0.0 | 0.00 | 0.11 | 0.01 | 58 | 980.3 |
| 20260505212508 | 54 | 31 | 0.0 | 0.0 | 0.00 | 0.11 | 0.01 | 55 | 980.3 |
| 20260505212012 | 54 | 31 | 0.0 | 0.0 | 0.00 | 0.11 | 0.01 | 57 | 980.4 |
| 20260505211514 | 55 | 31 | 0.0 | 0.0 | 0.00 | 0.11 | 0.01 | 54 | 980.3 |
| 20260505211006 | 55 | 31 | 0.0 | 0.0 | 0.00 | 0.11 | 0.01 | 57 | 980.3 |
| 20260505210506 | 56 | 32 | 0.0 | 0.0 | 0.00 | 0.11 | 0.01 | 56 | 980.1 |
| 20260505210022 | 56 | 32 | 0.0 | 0.0 | 0.00 | 0.11 | 0.01 | 59 | 980.0 |
| 20260505205508 | 56 | 32 | 0.0 | 0.0 | 0.00 | 0.11 | 0.01 | 59 | 980.0 |
| 20260505205010 | 56 | 32 | 0.0 | 0.0 | 0.00 | 0.11 | 0.01 | 59 | 979.8 |
| 20260505204525 | 57 | 32 | 0.0 | 0.0 | 0.00 | 0.11 | 0.01 | 60 | 979.9 |
| 20260505204006 | 57 | 32 | 0.0 | 0.0 | 0.00 | 0.11 | 0.01 | 60 | 979.8 |
| 20260505203504 | 57 | 32 | 0.0 | 0.0 | 0.00 | 0.11 | 0.01 | 61 | 979.9 |
| 20260505203010 | 57 | 32 | 0.0 | 0.0 | 0.00 | 0.11 | 0.01 | 63 | 980.1 |